Date,TemperatureHighF,TemperatureAvgF,TemperatureLowF,DewpointHighF,DewpointAvgF,DewpointLowF,HumidityHigh,HumidityAvg,HumidityLow,PressureMaxIn,PressureMinIn,WindSpeedMaxMPH,WindSpeedAvgMPH,GustSpeedMaxMPH,PrecipitationSumIn
2012-9-16,59.1,55.7,53.6,52.4,51.9,51.3,92,87,78,30.11,30.10,0,0,0,0.00
2012-9-17,72.8,61.0,49.0,63.9,56.9,48.0,99,87,65,30.12,29.95,13,1,15,0.01
2012-9-18,71.0,67.1,59.8,70.0,66.2,56.2,100,97,88,29.95,29.57,17,4,29,3.35
2012-9-19,66.1,60.0,53.3,56.0,48.8,42.5,89,68,44,30.16,29.83,9,2,13,0.00
2012-9-20,70.6,62.4,59.9,55.5,55.2,54.1,84,77,56,30.08,30.05,7,2,0,0.00
2012-9-21,76.8,65.7,52.8,64.7,59.1,51.7,98,80,60,30.08,29.93,11,2,16,0.00
2012-9-22,80.5,69.1,62.0,67.2,60.9,47.5,97,77,51,29.92,29.76,12,2,14,0.00
2012-9-23,66.1,56.5,47.8,49.1,45.1,42.0,88,67,46,30.17,29.93,11,1,18,0.00
2012-9-24,65.2,55.2,45.7,49.7,44.6,39.3,95,70,41,30.24,30.12,7,0,0,0.00
2012-9-25,71.2,58.6,42.5,54.7,48.4,41.0,96,72,46,30.21,30.05,9,1,0,0.00
2012-9-26,78.9,67.2,57.0,66.1,60.5,54.7,98,80,59,30.12,30.04,7,1,13,0.06
2012-9-27,77.3,68.8,62.8,66.1,63.2,59.4,96,83,64,30.17,30.04,8,1,12,0.15
2012-9-28,74.4,66.0,58.4,67.5,59.9,51.9,100,82,61,30.09,29.98,5,0,0,0.23
2012-9-29,65.8,56.8,49.6,53.5,49.6,47.7,96,78,56,30.03,29.92,7,1,12,0.00
2012-9-30,68.7,54.7,47.8,54.7,50.2,46.7,98,86,52,29.93,29.81,10,1,15,0.09
2012-10-1,68.8,56.6,44.7,56.4,50.8,44.0,99,83,47,29.98,29.90,6,0,0,0.02
2012-10-2,63.6,60.8,58.0,63.1,59.9,56.3,100,97,93,29.96,29.89,6,1,0,1.26
2012-10-3,79.1,69.4,63.1,70.7,66.3,62.8,100,91,67,30.11,29.94,2,0,0,0.06
2012-10-4,76.0,69.1,60.4,70.4,63.6,54.1,100,84,59,30.14,30.09,9,0,0,0.02
2012-10-5,78.6,66.3,54.9,62.7,57.0,52.4,92,74,51,30.14,29.93,3,0,0,0.00
2012-10-6,71.9,57.9,46.9,63.2,52.1,42.7,98,82,60,30.07,29.83,12,1,18,0.00
2012-10-7,52.1,47.8,42.3,46.7,44.0,40.6,96,87,71,30.19,30.03,2,0,0,0.08
2012-10-8,47.7,43.6,38.3,43.1,40.8,37.0,96,90,79,30.32,30.18,5,0,0,0.03
2012-10-9,59.7,51.0,43.5,50.7,46.1,41.9,97,84,63,30.24,30.07,4,0,0,0.00
2012-10-10,67.1,55.4,47.6,54.0,47.9,41.2,99,78,52,30.09,29.86,11,1,17,0.00
2012-10-11,59.4,50.2,41.8,41.4,36.1,31.7,81,59,41,30.29,30.09,12,1,14,0.00
2012-10-12,59.3,48.1,39.7,44.4,37.8,29.8,91,69,48,30.44,30.14,14,2,18,0.00
2012-10-13,56.1,47.1,35.2,39.7,33.6,28.1,76,60,47,30.53,30.27,12,2,16,0.00
2012-10-14,70.1,55.4,45.5,56.4,47.9,39.7,88,76,61,30.26,29.90,12,2,20,0.00
2012-10-15,65.3,61.9,54.5,63.3,56.9,46.4,98,84,66,29.90,29.67,8,1,13,0.22
2012-10-16,60.1,53.0,43.2,47.4,43.0,39.4,87,70,50,29.93,29.81,12,1,15,0.00
2012-10-17,64.7,51.8,37.5,51.3,44.3,36.2,98,78,54,30.03,29.91,9,1,18,0.00
2012-10-18,66.4,57.5,49.9,57.7,53.0,48.0,98,86,68,29.95,29.79,12,3,17,1.11
2012-10-19,66.9,59.3,52.8,61.8,57.8,49.0,99,95,83,29.82,29.60,4,0,0,0.19
2012-10-20,64.2,54.8,47.1,49.1,43.7,39.0,86,67,47,29.94,29.66,9,0,14,0.00
2012-10-21,62.8,52.4,45.2,46.9,41.7,39.0,84,68,48,30.15,29.94,10,1,12,0.00
2012-10-22,68.5,53.4,38.0,49.9,43.8,36.4,96,72,47,30.22,30.10,7,0,0,0.00
2012-10-23,77.2,62.2,49.1,60.1,52.8,46.0,92,73,51,30.15,30.03,6,0,0,0.00
2012-10-24,78.2,66.5,56.3,61.2,56.3,53.9,93,72,47,30.12,30.05,7,0,0,0.00
2012-10-25,65.2,61.8,58.2,60.1,58.1,54.5,96,88,71,30.20,30.10,6,1,0,0.00
2012-10-26,66.3,62.2,59.5,60.6,58.6,57.6,95,88,75,30.19,30.05,6,1,0,0.00
2012-10-27,66.4,61.4,58.1,58.1,54.9,49.6,93,80,57,30.05,29.86,7,2,14,0.00
2012-10-28,58.2,55.9,51.2,53.9,50.5,46.5,95,82,69,29.87,29.63,13,3,16,0.32
2012-10-29,51.5,47.7,43.0,49.7,46.3,41.6,97,95,91,29.63,28.67,20,7,32,3.79
2012-10-30,43.2,40.3,39.1,41.9,39.2,37.9,98,96,94,29.46,28.67,24,2,25,0.67
2012-10-31,50.9,43.3,38.4,41.7,38.1,35.9,98,83,64,29.65,29.46,7,0,0,0.02
2012-11-1,48.6,45.4,43.1,38.6,36.6,35.2,77,71,66,29.75,29.65,6,1,0,0.00
2012-11-2,48.4,43.7,38.2,37.3,34.3,31.4,84,69,56,29.93,29.74,14,1,17,0.00
2012-11-3,45.8,42.6,40.4,34.1,32.5,30.6,75,67,62,30.08,29.93,11,2,17,0.00
2012-11-4,47.9,40.1,33.8,33.2,30.2,27.6,81,68,51,30.10,30.02,11,2,13,0.00
2012-11-5,45.2,39.0,33.1,30.3,27.9,25.2,75,65,52,30.20,30.06,11,2,16,0.00
2012-11-6,42.3,35.4,26.5,28.9,26.1,23.3,88,69,55,30.23,30.03,7,1,0,0.00
2012-11-7,42.5,38.5,35.2,31.0,27.9,23.9,70,65,59,30.04,29.92,10,2,12,0.00
2012-11-8,50.6,42.2,34.3,31.4,23.1,14.9,65,48,24,30.08,29.93,17,4,21,0.00
2012-11-9,54.8,44.8,36.7,37.0,33.9,30.4,81,66,49,30.24,30.07,10,2,17,0.00
2012-11-10,63.1,50.4,37.1,43.4,38.2,32.9,87,65,42,30.36,30.22,5,0,0,0.00
2012-11-11,65.6,54.3,42.7,46.4,42.3,38.4,85,65,43,30.45,30.35,15,2,15,0.00
2012-11-12,65.8,59.4,48.3,57.9,52.4,44.5,93,78,63,30.40,30.12,22,4,22,0.36
2012-11-13,48.1,40.5,30.8,46.5,33.1,25.9,96,76,54,30.51,30.19,13,4,20,0.62
2012-11-14,44.0,36.0,29.2,29.0,27.2,25.5,92,71,53,30.58,30.45,8,1,12,0.00
2012-11-15,45.8,38.1,30.4,34.5,30.7,26.5,87,75,63,30.46,30.32,4,0,0,0.00
2012-11-16,51.8,41.6,33.3,36.2,32.1,29.6,93,71,48,30.47,30.32,5,0,0,0.00
2012-11-17,52.7,43.4,33.9,33.1,29.9,27.7,79,60,41,30.61,30.47,8,1,0,0.00
2012-11-18,51.2,44.0,34.3,39.2,35.3,28.7,87,72,61,30.63,30.51,7,2,0,0.00
2012-11-19,49.7,43.9,36.5,40.0,37.2,33.4,91,78,67,30.51,30.24,10,2,0,0.00
2012-11-20,50.3,41.7,33.0,42.4,37.0,30.3,95,84,73,30.25,30.10,3,0,0,0.00
2012-11-21,53.2,42.6,33.5,42.5,36.0,30.3,100,79,55,30.24,30.14,6,0,0,0.00
2012-11-22,57.1,43.1,30.8,38.2,32.2,26.8,92,67,43,30.29,30.14,3,0,0,0.00
2012-11-23,59.0,46.1,31.9,46.1,33.5,26.7,86,63,42,30.14,29.78,12,1,21,0.00
2012-11-24,41.5,36.0,32.6,27.0,22.2,19.6,63,57,50,30.04,29.87,15,3,20,0.00
2012-11-25,41.6,33.6,27.9,23.9,21.3,18.9,76,61,44,30.08,29.93,13,1,18,0.00
2012-11-26,50.4,40.9,25.9,31.9,27.5,20.4,81,59,48,30.22,30.01,8,0,0,0.00
2012-11-27,42.9,38.0,34.3,38.3,34.4,29.6,96,87,60,30.28,30.18,7,1,13,0.30
2012-11-28,44.5,37.2,32.4,33.7,26.3,22.1,90,66,44,30.38,30.25,10,1,13,0.00
2012-11-29,48.0,37.8,29.6,29.9,25.0,22.9,83,61,38,30.47,30.33,6,0,0,0.00
2012-11-30,50.0,40.4,30.0,33.1,28.1,23.8,79,62,43,30.38,30.31,5,0,0,0.00
2012-12-1,44.5,40.2,36.0,38.9,35.5,29.7,95,84,64,30.46,30.35,7,1,0,0.00
2012-12-2,50.4,40.9,31.6,45.4,38.7,30.7,99,92,80,30.40,30.14,5,0,0,0.00
2012-12-3,66.7,57.0,45.0,56.5,51.0,42.6,95,81,65,30.27,30.15,4,0,0,0.00
2012-12-4,69.9,59.9,50.5,57.0,52.7,49.1,98,78,61,30.22,29.98,6,1,0,0.00
2012-12-5,61.0,49.2,33.6,51.0,36.4,23.3,76,62,46,30.32,29.97,15,4,18,0.00
2012-12-6,40.2,34.3,25.9,27.3,23.6,21.5,85,65,51,30.40,30.24,10,1,0,0.00
2012-12-7,46.4,40.4,34.4,40.8,36.4,27.4,95,86,75,30.24,29.97,7,2,12,0.16
2012-12-8,52.7,43.9,38.9,49.0,41.8,37.9,100,92,82,30.03,29.90,6,0,0,0.00
2012-12-9,50.8,46.9,44.1,49.1,45.9,43.7,99,96,92,30.19,29.97,11,2,15,0.34
2012-12-10,56.3,51.7,44.0,56.0,51.3,42.6,100,99,86,29.96,29.56,8,1,20,0.01
2012-12-11,47.2,41.3,34.0,42.5,34.1,27.3,90,76,61,30.24,29.70,12,2,17,0.02
2012-12-12,40.6,35.7,32.2,31.2,28.5,26.2,83,75,65,30.45,30.23,6,1,0,0.00
2012-12-13,44.8,35.4,26.6,29.9,24.8,22.4,88,67,42,30.49,30.35,6,0,0,0.00
2012-12-14,53.7,38.1,23.9,32.0,25.9,21.0,92,65,31,30.36,30.22,6,0,0,0.00
2012-12-15,51.7,42.7,31.1,36.6,30.3,24.7,83,62,45,30.31,30.12,8,2,13,0.00
2012-12-16,46.3,44.5,42.3,43.4,40.9,35.5,95,87,69,30.14,29.84,8,1,0,0.00
2012-12-17,51.0,46.6,43.3,51.0,45.8,42.2,100,97,95,29.86,29.53,8,1,13,0.06
2012-12-18,55.3,46.2,37.4,50.6,40.8,30.3,100,82,61,29.82,29.51,11,1,20,0.02
2012-12-19,50.4,42.5,33.9,40.3,34.8,29.8,89,74,64,30.19,29.80,10,1,16,0.00
2012-12-20,45.6,39.8,36.3,44.8,35.4,32.2,97,84,67,30.22,29.41,15,3,24,0.47
2012-12-21,51.2,38.8,35.4,50.7,30.6,24.3,99,73,62,29.55,29.31,15,3,22,0.52
2012-12-22,39.4,35.5,30.7,24.5,23.1,21.4,68,61,52,30.03,29.54,22,4,29,0.00
2012-12-23,46.8,35.7,26.7,26.3,21.7,19.1,75,58,37,30.07,29.90,9,1,12,0.00
2012-12-24,37.7,33.2,30.3,31.0,27.9,24.6,97,82,63,30.10,29.91,9,1,14,0.00
2012-12-25,42.9,35.5,30.8,37.4,32.5,29.6,99,89,73,30.26,29.92,11,1,15,0.32
2012-12-26,35.8,31.4,27.8,35.0,29.0,25.1,98,91,78,30.26,29.47,11,3,18,0.87
2012-12-27,37.7,34.5,33.0,33.5,28.7,26.1,98,80,65,30.04,29.47,15,4,26,0.30
2012-12-28,36.9,33.9,30.1,28.0,26.5,25.2,83,74,65,30.17,30.03,9,1,15,0.17
2012-12-29,37.5,33.9,31.5,34.9,30.0,26.8,96,86,72,30.05,29.59,17,2,23,0.15
2012-12-30,35.4,33.2,27.0,27.5,22.9,19.6,74,66,57,30.34,29.83,16,3,23,0.01
2012-12-31,35.1,30.1,24.3,26.4,22.3,18.0,79,73,65,30.33,30.01,6,0,0,0.00
2013-1-1,40.6,38.2,34.4,30.7,29.1,24.6,80,70,62,30.03,29.93,8,1,0,0.00